RAM266 FOOL-GMMN

Flight info

Callsign RAM266
Flight time 5h 26m
Altitude 38000
Route LV UG856 LAG UR984 OG UR866 BULIS UM372 MAK UR722 FOBAC
Aircraft B738/M-SDE2E3FGHIRWXY/LB1

Departure

Time 2026-04-25 03:51
Airport Libreville Leon M'ba International Airport (FOOL)

Arrival

Time 2026-04-25 09:17
Airport Mohammed V International Airport (GMMN)
Time Latitude Longitude Altitude Speed Heading
2026-04-25 03:14 0.45668 9.41130 35 ft 0 kts 243°
2026-04-25 03:37 0.45673 9.41140 36 ft 4 kts 243°
2026-04-25 03:37 0.45684 9.41160 34 ft 3 kts 235°
2026-04-25 03:38 0.45695 9.41172 35 ft 2 kts 201°
2026-04-25 03:38 0.45706 9.41174 33 ft 2 kts 171°
2026-04-25 03:38 0.45718 9.41171 34 ft 2 kts 158°
2026-04-25 03:38 0.45728 9.41166 37 ft 2 kts 154°
2026-04-25 03:39 0.45738 9.41161 33 ft 2 kts 153°
2026-04-25 03:39 0.45739 9.41161 33 ft 0 kts 153°
2026-04-25 03:41 0.45736 9.41162 33 ft 1 kts 153°
2026-04-25 03:41 0.45721 9.41171 35 ft 4 kts 150°
2026-04-25 03:42 0.45693 9.41184 35 ft 5 kts 156°
2026-04-25 03:42 0.45662 9.41200 35 ft 5 kts 152°
2026-04-25 03:42 0.45630 9.41219 33 ft 6 kts 139°
2026-04-25 03:42 0.45613 9.41258 35 ft 7 kts 94°
2026-04-25 03:43 0.45636 9.41308 34 ft 9 kts 36°
2026-04-25 03:43 0.45697 9.41304 35 ft 10 kts 339°
2026-04-25 03:43 0.45764 9.41276 35 ft 11 kts 335°
2026-04-25 03:43 0.45837 9.41242 35 ft 12 kts 335°
2026-04-25 03:44 0.45919 9.41203 34 ft 14 kts 332°
2026-04-25 03:44 0.46010 9.41157 35 ft 15 kts 334°
2026-04-25 03:44 0.46074 9.41125 36 ft 16 kts 334°
2026-04-25 03:44 0.46202 9.41064 35 ft 15 kts 335°
2026-04-25 03:45 0.46295 9.41020 35 ft 15 kts 334°
2026-04-25 03:45 0.46356 9.40992 35 ft 15 kts 334°
2026-04-25 03:45 0.46450 9.40946 37 ft 15 kts 335°
2026-04-25 03:45 0.46579 9.40888 38 ft 16 kts 335°
2026-04-25 03:46 0.46650 9.40855 38 ft 17 kts 334°
2026-04-25 03:46 0.46761 9.40800 38 ft 18 kts 333°
2026-04-25 03:46 0.46880 9.40743 37 ft 20 kts 338°
2026-04-25 03:46 0.46982 9.40692 36 ft 14 kts 331°
2026-04-25 03:47 0.47026 9.40663 36 ft 5 kts 316°
2026-04-25 03:47 0.47043 9.40650 36 ft 0 kts 339°
2026-04-25 03:47 0.47046 9.40651 36 ft 1 kts
2026-04-25 03:47 0.47047 9.40654 36 ft 0 kts 53°
2026-04-25 03:48 0.47045 9.40657 36 ft 1 kts 95°
2026-04-25 03:48 0.47036 9.40663 35 ft 4 kts 147°
2026-04-25 03:48 0.47013 9.40674 36 ft 0 kts 151°
2026-04-25 03:50 0.46871 9.40748 38 ft 54 kts 153°
2026-04-25 03:50 0.46343 9.40999 37 ft 113 kts 155°
2026-04-25 03:50 0.45568 9.41370 35 ft 124 kts 152°
2026-04-25 03:50 0.44705 9.41825 56 ft 167 kts 149°
2026-04-25 03:51 0.43700 9.42476 856 ft 164 kts 139°
2026-04-25 03:51 0.42921 9.43284 1761 ft 165 kts 117°
2026-04-25 03:51 0.42741 9.44477 2197 ft 192 kts 78°
2026-04-25 03:51 0.43468 9.45685 2430 ft 219 kts 39°
2026-04-25 03:52 0.44942 9.46200 2595 ft 238 kts 358°
2026-04-25 03:52 0.46516 9.45628 2867 ft 249 kts 318°
2026-04-25 03:52 0.47468 9.44183 3128 ft 262 kts 283°
2026-04-25 03:52 0.47786 9.42357 3612 ft 271 kts 279°
2026-04-25 03:53 0.48198 9.40512 4374 ft 273 kts 287°
2026-04-25 03:53 0.49176 9.38893 5068 ft 277 kts 312°
2026-04-25 03:53 0.50555 9.37533 5831 ft 278 kts 315°
2026-04-25 03:53 0.51968 9.36201 6540 ft 280 kts 315°
2026-04-25 03:54 0.53374 9.34880 7205 ft 282 kts 315°
2026-04-25 03:54 0.54802 9.33531 7887 ft 283 kts 315°
2026-04-25 03:54 0.56238 9.32165 8553 ft 286 kts 315°
2026-04-25 03:54 0.57684 9.30782 9187 ft 289 kts 314°
2026-04-25 03:55 0.59140 9.29384 9857 ft 291 kts 314°
2026-04-25 03:55 0.60613 9.27964 10300 ft 301 kts 314°
2026-04-25 03:55 0.62143 9.26486 10750 ft 308 kts 314°
2026-04-25 03:55 0.63717 9.24965 11129 ft 319 kts 314°
2026-04-25 03:56 0.65336 9.23397 11512 ft 330 kts 315°
2026-04-25 03:56 0.67005 9.21781 11948 ft 337 kts 315°
2026-04-25 03:56 0.68689 9.20151 12418 ft 344 kts 315°
2026-04-25 03:56 0.70432 9.18461 12752 ft 355 kts 315°
2026-04-25 03:57 0.72223 9.16727 13099 ft 364 kts 315°
2026-04-25 03:57 0.74037 9.14969 13669 ft 366 kts 315°
2026-04-25 03:57 0.75910 9.13154 13733 ft 382 kts 315°
2026-04-25 03:57 0.77822 9.11300 13941 ft 392 kts 315°
2026-04-25 03:58 0.79810 9.09374 14194 ft 399 kts 315°
2026-04-25 03:58 0.81821 9.07424 14488 ft 405 kts 315°
2026-04-25 03:58 0.83831 9.05476 14874 ft 407 kts 315°
2026-04-25 03:58 0.85876 9.03494 15250 ft 410 kts 315°
2026-04-25 03:59 0.87934 9.01499 15612 ft 413 kts 315°
2026-04-25 03:59 0.90014 8.99483 15966 ft 416 kts 315°
2026-04-25 03:59 0.92071 8.97488 16365 ft 417 kts 315°
2026-04-25 03:59 0.94167 8.95457 16759 ft 419 kts 315°
2026-04-25 04:00 0.96268 8.93420 17188 ft 420 kts 315°
2026-04-25 04:00 0.98347 8.91404 17616 ft 420 kts 315°
2026-04-25 04:00 1.00449 8.89365 18059 ft 420 kts 316°
2026-04-25 04:00 1.02545 8.87333 18475 ft 420 kts 315°
2026-04-25 04:01 1.04622 8.85320 19194 ft 409 kts 315°
2026-04-25 04:01 1.06630 8.83373 20047 ft 396 kts 315°
2026-04-25 04:01 1.08575 8.81487 20765 ft 389 kts 315°
2026-04-25 04:01 1.10523 8.79598 21172 ft 392 kts 315°
2026-04-25 04:02 1.12498 8.77682 21496 ft 395 kts 315°
2026-04-25 04:02 1.14474 8.75764 21960 ft 395 kts 315°
2026-04-25 04:02 1.16448 8.73850 22418 ft 395 kts 315°
2026-04-25 04:02 1.18410 8.71947 22749 ft 399 kts 315°
2026-04-25 04:03 1.20418 8.70001 22987 ft 405 kts 315°
2026-04-25 04:03 1.22469 8.68015 23079 ft 413 kts 315°
2026-04-25 04:03 1.24538 8.66014 23504 ft 413 kts 315°
2026-04-25 04:03 1.26618 8.64003 23651 ft 419 kts 316°
2026-04-25 04:04 1.28728 8.61963 23834 ft 423 kts 316°
2026-04-25 04:04 1.30843 8.59916 24130 ft 424 kts 316°
2026-04-25 04:04 1.32946 8.57882 24413 ft 426 kts 316°
2026-04-25 04:04 1.35076 8.55820 24661 ft 428 kts 316°
2026-04-25 04:05 1.37224 8.53741 24905 ft 430 kts 316°
2026-04-25 04:05 1.39378 8.51657 25159 ft 432 kts 316°
2026-04-25 04:05 1.41547 8.49557 25403 ft 434 kts 316°
2026-04-25 04:05 1.43722 8.47452 25610 ft 437 kts 316°
2026-04-25 04:06 1.45921 8.45323 25818 ft 440 kts 316°
2026-04-25 04:06 1.48123 8.43193 26092 ft 440 kts 317°
2026-04-25 04:06 1.50324 8.41061 26437 ft 439 kts 317°
2026-04-25 04:06 1.52519 8.38935 26699 ft 441 kts 317°
2026-04-25 04:07 1.54707 8.36817 26913 ft 443 kts 316°
2026-04-25 04:07 1.56934 8.34662 27096 ft 447 kts 316°
2026-04-25 04:07 1.59175 8.32493 27289 ft 449 kts 316°
2026-04-25 04:07 1.61425 8.30315 27485 ft 452 kts 317°
2026-04-25 04:08 1.63679 8.28131 27793 ft 451 kts 316°
2026-04-25 04:08 1.65943 8.25939 28095 ft 451 kts 316°
2026-04-25 04:08 1.68204 8.23749 28232 ft 454 kts 316°
2026-04-25 04:08 1.70458 8.21567 28324 ft 459 kts 316°
2026-04-25 04:09 1.72768 8.19330 28450 ft 463 kts 316°
2026-04-25 04:09 1.75089 8.17082 28600 ft 465 kts 316°
2026-04-25 04:09 1.77424 8.14820 28795 ft 466 kts 316°
2026-04-25 04:09 1.79758 8.12560 29054 ft 466 kts 316°
2026-04-25 04:10 1.82083 8.10307 29287 ft 467 kts 316°
2026-04-25 04:10 1.84397 8.08065 29454 ft 469 kts 316°
2026-04-25 04:10 1.86747 8.05788 29663 ft 469 kts 316°
2026-04-25 04:10 1.89089 8.03519 29936 ft 469 kts 316°
2026-04-25 04:11 1.93789 7.98968 30228 ft 472 kts 317°
2026-04-25 04:11 1.96158 7.96679 30404 ft 472 kts 317°
2026-04-25 04:11 1.98497 7.94421 30571 ft 473 kts 317°
2026-04-25 04:12 2.00872 7.92127 30728 ft 474 kts 317°
2026-04-25 04:12 2.03251 7.89829 30862 ft 476 kts 317°
2026-04-25 04:12 2.05640 7.87521 30999 ft 477 kts 317°
2026-04-25 04:12 2.08024 7.85216 31153 ft 478 kts 317°
2026-04-25 04:13 2.10424 7.82896 31302 ft 479 kts 317°
2026-04-25 04:13 2.12800 7.80599 31447 ft 479 kts 317°
2026-04-25 04:13 2.15195 7.78283 31588 ft 480 kts 316°
2026-04-25 04:13 2.17606 7.75951 31740 ft 481 kts 316°
2026-04-25 04:14 2.20018 7.73619 31913 ft 481 kts 316°
2026-04-25 04:14 2.22429 7.71288 32097 ft 481 kts 316°
2026-04-25 04:14 2.24833 7.68962 32311 ft 480 kts 316°
2026-04-25 04:14 2.27201 7.66672 32536 ft 479 kts 316°
2026-04-25 04:15 2.29595 7.64357 32737 ft 478 kts 316°
2026-04-25 04:15 2.31987 7.62044 32927 ft 478 kts 316°
2026-04-25 04:15 2.34376 7.59733 33113 ft 478 kts 316°
2026-04-25 04:15 2.36769 7.57417 33320 ft 477 kts 316°
2026-04-25 04:16 2.39154 7.55111 33533 ft 476 kts 316°
2026-04-25 04:16 2.41534 7.52808 33744 ft 475 kts 316°
2026-04-25 04:16 2.43915 7.50504 33928 ft 475 kts 316°
2026-04-25 04:16 2.46285 7.48210 34081 ft 475 kts 316°
2026-04-25 04:17 2.48635 7.45936 34244 ft 474 kts 316°
2026-04-25 04:17 2.51008 7.43639 34404 ft 473 kts 316°
2026-04-25 04:17 2.53378 7.41345 34557 ft 473 kts 316°
2026-04-25 04:17 2.55736 7.39044 34715 ft 473 kts 316°
2026-04-25 04:18 2.58085 7.36742 34875 ft 472 kts 316°
2026-04-25 04:18 2.60427 7.34440 35020 ft 472 kts 316°
2026-04-25 04:18 2.62768 7.32139 35166 ft 471 kts 316°
2026-04-25 04:18 2.65085 7.29862 35321 ft 471 kts 316°
2026-04-25 04:19 2.67426 7.27563 35454 ft 471 kts 316°
2026-04-25 04:19 2.69759 7.25273 35596 ft 470 kts 316°
2026-04-25 04:19 2.72100 7.22976 35740 ft 469 kts 316°
2026-04-25 04:19 2.74438 7.20682 35871 ft 469 kts 316°
2026-04-25 04:20 2.76740 7.18424 35994 ft 469 kts 316°
2026-04-25 04:20 2.79074 7.16133 36119 ft 469 kts 316°
2026-04-25 04:20 2.81401 7.13849 36260 ft 468 kts 316°
2026-04-25 04:20 2.83719 7.11574 36437 ft 466 kts 316°
2026-04-25 04:21 2.86040 7.09296 36574 ft 466 kts 316°
2026-04-25 04:21 2.90656 7.04765 36696 ft 468 kts 316°
2026-04-25 04:22 2.95313 7.00193 36825 ft 470 kts 316°
2026-04-25 04:22 2.99998 6.95593 36964 ft 471 kts 316°
2026-04-25 04:23 3.04653 6.91022 37093 ft 472 kts 316°
2026-04-25 04:23 3.09349 6.86409 37211 ft 474 kts 316°
2026-04-25 04:24 3.14072 6.81768 37297 ft 475 kts 316°
2026-04-25 04:24 3.18781 6.77147 37387 ft 476 kts 316°
2026-04-25 04:25 3.23554 6.72525 37474 ft 477 kts 316°
2026-04-25 04:25 3.28345 6.67905 37570 ft 477 kts 316°
2026-04-25 04:26 3.33095 6.63316 37665 ft 477 kts 316°
2026-04-25 04:26 3.37860 6.58705 37848 ft 475 kts 316°
2026-04-25 04:27 3.42618 6.54099 37858 ft 476 kts 316°
2026-04-25 04:27 3.47358 6.49510 37862 ft 476 kts 316°
2026-04-25 04:28 3.52136 6.44884 37862 ft 476 kts 317°
2026-04-25 04:28 3.56873 6.40297 37865 ft 477 kts 317°
2026-04-25 04:29 3.61640 6.35680 37866 ft 477 kts 317°
2026-04-25 04:29 3.66415 6.31054 37864 ft 477 kts 317°
2026-04-25 04:30 3.71159 6.26458 37862 ft 477 kts 317°
2026-04-25 04:30 3.75928 6.21836 37869 ft 477 kts 317°
2026-04-25 04:31 3.80695 6.17216 37879 ft 477 kts 316°
2026-04-25 04:31 3.85486 6.12571 37870 ft 478 kts 316°
2026-04-25 04:32 3.90241 6.07955 37864 ft 478 kts 316°
2026-04-25 04:32 3.95030 6.03303 37869 ft 479 kts 316°
2026-04-25 04:33 3.99820 5.98649 37869 ft 479 kts 316°
2026-04-25 04:33 4.04579 5.94024 37868 ft 479 kts 316°
2026-04-25 04:34 4.08565 5.90150 37871 ft 479 kts 316°
2026-04-25 04:34 4.14145 5.84725 37867 ft 479 kts 316°
2026-04-25 04:35 4.18933 5.80070 37869 ft 479 kts 316°
2026-04-25 04:35 4.22910 5.76202 37869 ft 480 kts 316°
2026-04-25 04:36 4.27709 5.71534 37874 ft 479 kts 316°
2026-04-25 04:36 4.32497 5.66876 37869 ft 479 kts 316°
2026-04-25 04:37 4.37261 5.62236 37867 ft 479 kts 316°
2026-04-25 04:37 4.42048 5.57564 37872 ft 479 kts 316°
2026-04-25 04:38 4.46827 5.52899 37868 ft 479 kts 316°
2026-04-25 04:38 4.51572 5.48265 37872 ft 479 kts 316°
2026-04-25 04:39 4.56355 5.43594 37873 ft 479 kts 316°
2026-04-25 04:39 4.61127 5.38933 37872 ft 478 kts 316°
2026-04-25 04:40 4.65873 5.34297 37868 ft 478 kts 316°
2026-04-25 04:40 4.70642 5.29637 37870 ft 478 kts 316°
2026-04-25 04:41 4.75408 5.24978 37869 ft 477 kts 316°
2026-04-25 04:41 4.80130 5.20362 37871 ft 477 kts 316°
2026-04-25 04:42 4.84891 5.15694 37869 ft 477 kts 316°
2026-04-25 04:42 4.89621 5.11041 37873 ft 476 kts 316°
2026-04-25 04:43 4.94329 5.06407 37870 ft 476 kts 316°
2026-04-25 04:43 4.99057 5.01754 37875 ft 476 kts 316°
2026-04-25 04:44 5.03793 4.97093 37872 ft 475 kts 316°
2026-04-25 04:44 5.08514 4.92446 37868 ft 475 kts 316°
2026-04-25 04:45 5.13204 4.87828 37873 ft 475 kts 315°
2026-04-25 04:45 5.17923 4.83182 37871 ft 474 kts 315°
2026-04-25 04:46 5.22636 4.78539 37876 ft 474 kts 316°
2026-04-25 04:46 5.27325 4.73920 37871 ft 474 kts 315°
2026-04-25 04:47 5.32035 4.69278 37872 ft 474 kts 315°
2026-04-25 04:47 5.36742 4.64639 37873 ft 474 kts 316°
2026-04-25 04:48 5.41448 4.60000 37871 ft 474 kts 316°
2026-04-25 04:48 5.46127 4.55386 37874 ft 474 kts 316°
2026-04-25 04:49 5.50845 4.50732 37872 ft 474 kts 315°
2026-04-25 04:49 5.55519 4.46121 37877 ft 474 kts 315°
2026-04-25 04:50 5.60232 4.41470 37873 ft 474 kts 315°
2026-04-25 04:50 5.64930 4.36833 37874 ft 474 kts 315°
2026-04-25 04:51 5.69609 4.32214 37877 ft 473 kts 315°
2026-04-25 04:51 5.74308 4.27572 37878 ft 473 kts 315°
2026-04-25 04:52 5.79015 4.22923 37876 ft 473 kts 315°
2026-04-25 04:52 5.83683 4.18310 37877 ft 473 kts 315°
2026-04-25 04:53 5.88380 4.13667 37875 ft 473 kts 315°
2026-04-25 04:53 5.93078 4.09023 37874 ft 473 kts 315°
2026-04-25 04:54 5.97790 4.04393 37877 ft 473 kts 316°
2026-04-25 04:54 6.02489 3.99796 37878 ft 473 kts 316°
2026-04-25 04:55 6.07204 3.95180 37880 ft 473 kts 316°
2026-04-25 04:55 6.11895 3.90581 37882 ft 473 kts 316°
2026-04-25 04:56 6.16615 3.85950 37884 ft 473 kts 316°
2026-04-25 04:56 6.21319 3.81334 37881 ft 472 kts 315°
2026-04-25 04:57 6.26004 3.76736 37884 ft 472 kts 315°
2026-04-25 04:57 6.30702 3.72124 37882 ft 472 kts 315°
2026-04-25 04:58 6.35244 3.67663 37883 ft 472 kts 315°
2026-04-25 04:58 6.39920 3.63070 37883 ft 472 kts 315°
2026-04-25 04:59 6.44632 3.58440 37892 ft 472 kts 315°
2026-04-25 04:59 6.49307 3.53846 37895 ft 473 kts 315°
2026-04-25 05:00 6.54016 3.49215 37907 ft 473 kts 315°
2026-04-25 05:00 6.58728 3.44581 37907 ft 473 kts 315°
2026-04-25 05:01 6.63427 3.39958 37910 ft 473 kts 315°
2026-04-25 05:01 6.68112 3.35348 37917 ft 473 kts 315°
2026-04-25 05:02 6.72913 3.30814 37903 ft 473 kts 319°
2026-04-25 05:02 6.77992 3.26595 37902 ft 473 kts 320°
2026-04-25 05:03 6.83122 3.22412 37895 ft 473 kts 320°
2026-04-25 05:03 6.88215 3.18209 37890 ft 473 kts 320°
2026-04-25 05:04 6.93271 3.14001 37891 ft 474 kts 320°
2026-04-25 05:04 6.98358 3.09758 37886 ft 474 kts 320°
2026-04-25 05:05 7.03408 3.05546 37890 ft 474 kts 320°
2026-04-25 05:05 7.08496 3.01303 37887 ft 474 kts 319°
2026-04-25 05:06 7.13547 2.97090 37884 ft 474 kts 319°
2026-04-25 05:06 7.18637 2.92843 37886 ft 474 kts 319°
2026-04-25 05:07 7.23720 2.88600 37887 ft 473 kts 319°
2026-04-25 05:07 7.28763 2.84390 37889 ft 473 kts 319°
2026-04-25 05:08 7.33841 2.80148 37887 ft 473 kts 319°
2026-04-25 05:08 7.38908 2.75914 37888 ft 472 kts 319°
2026-04-25 05:09 7.43927 2.71693 37885 ft 472 kts 319°
2026-04-25 05:09 7.48962 2.67417 37886 ft 471 kts 319°
2026-04-25 05:10 7.53944 2.63183 37885 ft 471 kts 319°
2026-04-25 05:10 7.58955 2.58930 37888 ft 470 kts 319°
2026-04-25 05:11 7.63962 2.54681 37882 ft 470 kts 319°
2026-04-25 05:11 7.68936 2.50457 37886 ft 469 kts 319°
2026-04-25 05:12 7.76440 2.44083 37885 ft 469 kts 319°
2026-04-25 05:12 7.81401 2.39866 37881 ft 469 kts 319°
2026-04-25 05:13 7.86397 2.35620 37881 ft 468 kts 319°
2026-04-25 05:13 7.91359 2.31408 37879 ft 468 kts 319°
2026-04-25 05:14 7.96357 2.27165 37878 ft 469 kts 319°
2026-04-25 05:15 8.03838 2.20811 37877 ft 469 kts 319°
2026-04-25 05:15 8.08837 2.16561 37880 ft 469 kts 319°
2026-04-25 05:16 8.13805 2.12337 37879 ft 469 kts 319°
2026-04-25 05:16 8.18803 2.08085 37880 ft 469 kts 319°
2026-04-25 05:17 8.23773 2.03857 37879 ft 469 kts 319°
2026-04-25 05:17 8.28776 1.99598 37876 ft 469 kts 319°
2026-04-25 05:18 8.33781 1.95337 37875 ft 470 kts 319°
2026-04-25 05:18 8.38770 1.91087 37877 ft 470 kts 319°
2026-04-25 05:19 8.43776 1.86821 37880 ft 470 kts 319°
2026-04-25 05:19 8.48746 1.82586 37881 ft 470 kts 319°
2026-04-25 05:20 8.53761 1.78309 37879 ft 471 kts 318°
2026-04-25 05:20 8.58768 1.74038 37880 ft 471 kts 318°
2026-04-25 05:21 8.63782 1.69760 37878 ft 471 kts 318°
2026-04-25 05:21 8.68758 1.65513 37876 ft 471 kts 318°
2026-04-25 05:22 8.73781 1.61224 37877 ft 471 kts 318°
2026-04-25 05:22 8.78771 1.56962 37873 ft 471 kts 318°
2026-04-25 05:23 8.83799 1.52665 37877 ft 471 kts 318°
2026-04-25 05:23 8.88771 1.48415 37877 ft 471 kts 318°
2026-04-25 05:24 8.92939 1.44850 37876 ft 471 kts 318°
2026-04-25 05:24 8.97941 1.40571 37879 ft 470 kts 318°
2026-04-25 05:25 9.02943 1.36291 37882 ft 470 kts 318°
2026-04-25 05:25 9.07937 1.32016 37878 ft 469 kts 318°
2026-04-25 05:26 9.12904 1.27762 37878 ft 469 kts 318°
2026-04-25 05:26 9.17886 1.23493 37876 ft 468 kts 318°
2026-04-25 05:27 9.22828 1.19258 37875 ft 467 kts 318°
2026-04-25 05:27 9.27796 1.14998 37875 ft 467 kts 318°
2026-04-25 05:28 9.32752 1.10747 37871 ft 466 kts 318°
2026-04-25 05:28 9.37673 1.06524 37871 ft 465 kts 318°
2026-04-25 05:29 9.42623 1.02274 37869 ft 464 kts 318°
2026-04-25 05:29 9.47549 0.98044 37873 ft 464 kts 318°
2026-04-25 05:30 9.52446 0.93839 37882 ft 463 kts 318°
2026-04-25 05:30 9.57333 0.89640 37882 ft 462 kts 318°
2026-04-25 05:31 9.62239 0.85421 37885 ft 462 kts 318°
2026-04-25 05:31 9.67143 0.81202 37873 ft 461 kts 318°
2026-04-25 05:32 9.72037 0.76990 37860 ft 461 kts 318°
2026-04-25 05:32 9.76933 0.72775 37852 ft 461 kts 318°
2026-04-25 05:33 9.81788 0.68593 37848 ft 460 kts 318°
2026-04-25 05:33 9.86673 0.64384 37845 ft 460 kts 318°
2026-04-25 05:34 9.91561 0.60170 37844 ft 460 kts 318°
2026-04-25 05:34 9.96438 0.55965 37845 ft 460 kts 318°
2026-04-25 05:35 10.01277 0.51790 37844 ft 459 kts 318°
2026-04-25 05:35 10.06154 0.47581 37842 ft 459 kts 318°
2026-04-25 05:36 10.11022 0.43377 37839 ft 459 kts 318°
2026-04-25 05:36 10.15888 0.39174 37841 ft 459 kts 318°
2026-04-25 05:37 10.20717 0.35000 37840 ft 458 kts 318°
2026-04-25 05:37 10.25574 0.30800 37841 ft 458 kts 318°
2026-04-25 05:38 10.30432 0.26599 37839 ft 458 kts 318°
2026-04-25 05:38 10.35256 0.22425 37836 ft 457 kts 318°
2026-04-25 05:39 10.40103 0.18228 37837 ft 457 kts 318°
2026-04-25 05:39 10.44941 0.14036 37845 ft 456 kts 317°
2026-04-25 05:40 10.49746 0.09870 37841 ft 456 kts 317°
2026-04-25 05:40 10.54576 0.05681 37847 ft 455 kts 317°
2026-04-25 05:41 10.59400 0.01495 37846 ft 455 kts 317°
2026-04-25 05:41 10.64188 -0.02661 37842 ft 455 kts 317°
2026-04-25 05:42 10.69008 -0.06833 37844 ft 454 kts 317°
2026-04-25 05:42 10.73834 -0.11008 37836 ft 454 kts 317°
2026-04-25 05:43 10.78609 -0.15143 37840 ft 453 kts 317°
2026-04-25 05:43 10.83417 -0.19310 37835 ft 452 kts 317°
2026-04-25 05:44 10.88195 -0.23454 37838 ft 451 kts 317°
2026-04-25 05:44 10.92968 -0.27594 37840 ft 450 kts 317°
2026-04-25 05:45 10.97710 -0.31710 37835 ft 449 kts 317°
2026-04-25 05:45 11.02462 -0.35834 37839 ft 448 kts 317°
2026-04-25 05:46 11.07216 -0.39960 37832 ft 448 kts 317°
2026-04-25 05:46 11.11935 -0.44058 37837 ft 447 kts 317°
2026-04-25 05:47 11.16677 -0.48180 37838 ft 447 kts 317°
2026-04-25 05:47 11.21406 -0.52293 37836 ft 447 kts 317°
2026-04-25 05:48 11.26145 -0.56416 37839 ft 447 kts 317°
2026-04-25 05:48 11.30847 -0.60508 37837 ft 446 kts 317°
2026-04-25 05:49 11.35568 -0.64619 37843 ft 446 kts 317°
2026-04-25 05:49 11.40276 -0.68721 37839 ft 446 kts 317°
2026-04-25 05:50 11.45005 -0.72842 37839 ft 447 kts 317°
2026-04-25 05:50 11.49739 -0.76970 37833 ft 447 kts 317°
2026-04-25 05:51 11.54447 -0.81077 37835 ft 447 kts 317°
2026-04-25 05:51 11.59185 -0.85212 37832 ft 447 kts 317°
2026-04-25 05:52 11.63878 -0.89310 37831 ft 447 kts 317°
2026-04-25 05:52 11.68608 -0.93442 37827 ft 446 kts 317°
2026-04-25 05:53 11.73336 -0.97573 37828 ft 446 kts 317°
2026-04-25 05:53 11.78030 -1.01678 37822 ft 446 kts 317°
2026-04-25 05:54 11.82750 -1.05806 37821 ft 446 kts 317°
2026-04-25 05:54 11.89798 -1.11976 37817 ft 446 kts 317°
2026-04-25 05:55 11.94489 -1.16085 37816 ft 446 kts 317°
2026-04-25 05:55 11.99203 -1.20215 37814 ft 446 kts 317°
2026-04-25 05:56 12.03913 -1.24345 37807 ft 446 kts 317°
2026-04-25 05:56 12.08627 -1.28479 37810 ft 445 kts 317°
2026-04-25 05:57 12.13306 -1.32585 37815 ft 445 kts 317°
2026-04-25 05:57 12.18015 -1.36719 37817 ft 445 kts 317°
2026-04-25 05:58 12.22713 -1.40847 37824 ft 445 kts 317°
2026-04-25 05:58 12.27385 -1.44953 37829 ft 444 kts 317°
2026-04-25 05:59 12.32079 -1.49080 37833 ft 444 kts 317°
2026-04-25 05:59 12.37217 -1.52603 37823 ft 449 kts 333°
2026-04-25 06:00 12.42912 -1.55157 37824 ft 449 kts 334°
2026-04-25 06:00 12.48665 -1.57695 37817 ft 449 kts 333°
2026-04-25 06:01 12.54383 -1.60258 37835 ft 448 kts 333°
2026-04-25 06:01 12.60053 -1.62826 37812 ft 448 kts 333°
2026-04-25 06:02 12.65765 -1.65420 37803 ft 448 kts 333°
2026-04-25 06:02 12.71476 -1.68014 37806 ft 448 kts 333°
2026-04-25 06:03 12.77140 -1.70586 37805 ft 448 kts 333°
2026-04-25 06:03 12.82848 -1.73181 37802 ft 447 kts 333°
2026-04-25 06:04 12.88516 -1.75757 37805 ft 447 kts 333°
2026-04-25 06:04 12.94207 -1.78346 37806 ft 447 kts 332°
2026-04-25 06:05 12.99914 -1.80943 37803 ft 447 kts 332°
2026-04-25 06:05 13.05578 -1.83523 37806 ft 447 kts 332°
2026-04-25 06:06 13.11276 -1.86119 37807 ft 447 kts 332°
2026-04-25 06:06 13.16962 -1.88710 37806 ft 447 kts 332°
2026-04-25 06:07 13.22624 -1.91288 37807 ft 447 kts 332°
2026-04-25 06:07 13.28316 -1.93880 37806 ft 447 kts 332°
2026-04-25 06:08 13.33981 -1.96462 37804 ft 447 kts 332°
2026-04-25 06:08 13.39685 -1.99064 37805 ft 447 kts 332°
2026-04-25 06:09 13.45388 -2.01667 37806 ft 447 kts 332°
2026-04-25 06:09 13.51082 -2.04267 37807 ft 447 kts 332°
2026-04-25 06:10 13.56742 -2.06852 37808 ft 447 kts 332°
2026-04-25 06:10 13.62437 -2.09456 37803 ft 447 kts 332°
2026-04-25 06:11 13.68100 -2.12045 37806 ft 447 kts 332°
2026-04-25 06:11 13.73799 -2.14654 37803 ft 447 kts 332°
2026-04-25 06:12 13.79453 -2.17242 37800 ft 447 kts 332°
2026-04-25 06:12 13.85145 -2.19850 37796 ft 447 kts 332°
2026-04-25 06:13 13.89870 -2.22015 37801 ft 447 kts 332°
2026-04-25 06:14 13.98404 -2.25929 37796 ft 447 kts 331°
2026-04-25 06:14 14.04050 -2.28520 37799 ft 446 kts 331°
2026-04-25 06:15 14.09738 -2.31131 37796 ft 446 kts 331°
2026-04-25 06:15 14.15402 -2.33734 37795 ft 446 kts 331°
2026-04-25 06:16 14.21079 -2.36343 37794 ft 445 kts 331°
2026-04-25 06:16 14.26708 -2.38933 37795 ft 445 kts 331°
2026-04-25 06:17 14.32378 -2.41542 37791 ft 445 kts 331°
2026-04-25 06:17 14.38007 -2.44134 37797 ft 444 kts 331°
2026-04-25 06:18 14.43663 -2.46739 37794 ft 444 kts 331°
2026-04-25 06:18 14.49308 -2.49339 37793 ft 444 kts 331°
2026-04-25 06:19 14.54946 -2.51938 37797 ft 444 kts 331°
2026-04-25 06:19 14.60603 -2.54547 37790 ft 443 kts 331°
2026-04-25 06:20 14.66198 -2.57130 37793 ft 443 kts 331°
2026-04-25 06:20 14.71831 -2.59732 37793 ft 443 kts 331°
2026-04-25 06:21 14.77468 -2.62337 37788 ft 443 kts 331°
2026-04-25 06:21 14.83096 -2.64939 37789 ft 442 kts 331°
2026-04-25 06:22 14.88683 -2.67524 37788 ft 442 kts 331°
2026-04-25 06:22 14.94304 -2.70126 37789 ft 441 kts 330°
2026-04-25 06:23 14.99918 -2.72727 37789 ft 441 kts 330°
2026-04-25 06:23 15.05489 -2.75310 37790 ft 440 kts 330°
2026-04-25 06:24 15.11085 -2.77905 37785 ft 440 kts 330°
2026-04-25 06:24 15.16678 -2.80503 37790 ft 440 kts 330°
2026-04-25 06:25 15.22234 -2.83087 37784 ft 440 kts 330°
2026-04-25 06:25 15.27824 -2.85689 37789 ft 439 kts 330°
2026-04-25 06:26 15.33402 -2.88286 37784 ft 439 kts 330°
2026-04-25 06:26 15.38949 -2.90871 37783 ft 439 kts 330°
2026-04-25 06:27 15.44540 -2.93477 37782 ft 439 kts 330°
2026-04-25 06:27 15.50082 -2.96063 37776 ft 439 kts 330°
2026-04-25 06:28 15.55654 -2.98663 37783 ft 439 kts 330°
2026-04-25 06:28 15.61236 -3.01270 37783 ft 439 kts 330°
2026-04-25 06:29 15.66824 -3.03882 37782 ft 439 kts 330°
2026-04-25 06:29 15.72362 -3.06471 37780 ft 440 kts 329°
2026-04-25 06:30 15.77944 -3.09083 37780 ft 440 kts 329°
2026-04-25 06:30 15.83532 -3.11699 37780 ft 440 kts 329°
2026-04-25 06:31 15.89120 -3.14317 37787 ft 440 kts 329°
2026-04-25 06:31 15.94682 -3.16924 37788 ft 441 kts 329°
2026-04-25 06:32 16.00279 -3.19549 37781 ft 441 kts 329°
2026-04-25 06:32 16.05879 -3.22177 37776 ft 441 kts 329°
2026-04-25 06:33 16.11496 -3.24815 37784 ft 441 kts 329°
2026-04-25 06:33 16.17068 -3.27433 37783 ft 441 kts 329°
2026-04-25 06:34 16.22676 -3.30070 37779 ft 441 kts 329°
2026-04-25 06:34 16.28253 -3.32694 37776 ft 442 kts 329°
2026-04-25 06:35 16.33861 -3.35335 37781 ft 442 kts 329°
2026-04-25 06:35 16.39438 -3.37962 37781 ft 442 kts 329°
2026-04-25 06:36 16.45047 -3.40605 37782 ft 442 kts 329°
2026-04-25 06:36 16.50658 -3.43250 37784 ft 441 kts 329°
2026-04-25 06:37 16.56221 -3.45874 37778 ft 441 kts 329°
2026-04-25 06:37 16.61816 -3.48516 37780 ft 441 kts 329°
2026-04-25 06:38 16.67420 -3.51164 37781 ft 441 kts 329°
2026-04-25 06:38 16.72983 -3.53794 37777 ft 440 kts 329°
2026-04-25 06:39 16.78562 -3.56434 37777 ft 440 kts 329°
2026-04-25 06:39 16.84141 -3.59076 37784 ft 440 kts 329°
2026-04-25 06:40 16.89686 -3.61703 37778 ft 439 kts 329°
2026-04-25 06:40 16.95249 -3.64340 37781 ft 439 kts 329°
2026-04-25 06:41 17.00818 -3.66982 37778 ft 438 kts 328°
2026-04-25 06:41 17.06338 -3.69602 37781 ft 438 kts 328°
2026-04-25 06:42 17.11903 -3.72245 37784 ft 437 kts 328°
2026-04-25 06:42 17.17410 -3.74863 37782 ft 437 kts 328°
2026-04-25 06:43 17.22964 -3.77504 37783 ft 437 kts 328°
2026-04-25 06:43 17.28465 -3.80123 37788 ft 437 kts 328°
2026-04-25 06:44 17.33998 -3.82758 37790 ft 437 kts 328°
2026-04-25 06:44 17.39533 -3.85396 37789 ft 437 kts 328°
2026-04-25 06:45 17.45067 -3.88035 37794 ft 437 kts 328°
2026-04-25 06:45 17.50569 -3.90660 37795 ft 437 kts 328°
2026-04-25 06:46 17.56103 -3.93303 37798 ft 436 kts 328°
2026-04-25 06:46 17.61640 -3.95949 37801 ft 436 kts 328°
2026-04-25 06:47 17.67172 -3.98594 37802 ft 436 kts 328°
2026-04-25 06:47 17.72671 -4.01225 37805 ft 436 kts 328°
2026-04-25 06:48 17.78206 -4.03875 37807 ft 436 kts 328°
2026-04-25 06:48 17.83692 -4.06504 37812 ft 436 kts 328°
2026-04-25 06:49 17.89173 -4.09132 37804 ft 435 kts 328°
2026-04-25 06:49 17.94697 -4.11782 37801 ft 435 kts 328°
2026-04-25 06:50 18.00164 -4.14407 37814 ft 434 kts 328°
2026-04-25 06:50 18.05660 -4.17047 37809 ft 434 kts 328°
2026-04-25 06:51 18.11147 -4.19685 37811 ft 433 kts 328°
2026-04-25 06:51 18.16620 -4.22318 37812 ft 432 kts 328°
2026-04-25 06:52 18.22060 -4.24938 37808 ft 431 kts 328°
2026-04-25 06:52 18.27519 -4.27568 37812 ft 431 kts 328°
2026-04-25 06:53 18.32978 -4.30200 37804 ft 430 kts 328°
2026-04-25 06:53 18.38422 -4.32826 37804 ft 430 kts 328°
2026-04-25 06:54 18.43837 -4.35441 37802 ft 429 kts 328°
2026-04-25 06:54 18.49269 -4.38065 37803 ft 429 kts 328°
2026-04-25 06:55 18.54699 -4.40691 37800 ft 429 kts 328°
2026-04-25 06:55 18.60097 -4.43302 37798 ft 428 kts 328°
2026-04-25 06:56 18.65521 -4.45929 37797 ft 428 kts 327°
2026-04-25 06:56 18.70918 -4.48543 37797 ft 428 kts 327°
2026-04-25 06:57 18.76329 -4.51167 37798 ft 428 kts 327°
2026-04-25 06:57 18.81736 -4.53790 37797 ft 428 kts 327°
2026-04-25 06:58 18.87141 -4.56414 37797 ft 428 kts 327°
2026-04-25 06:58 18.92550 -4.59043 37799 ft 428 kts 327°
2026-04-25 06:59 18.97445 -4.61423 37795 ft 428 kts 327°
2026-04-25 06:59 19.01944 -4.63612 37795 ft 428 kts 327°
2026-04-25 07:00 19.08241 -4.66678 37797 ft 428 kts 327°
2026-04-25 07:00 19.12754 -4.68877 37793 ft 428 kts 327°
2026-04-25 07:01 19.19047 -4.71945 37800 ft 428 kts 327°
2026-04-25 07:01 19.23572 -4.74153 37801 ft 428 kts 327°
2026-04-25 07:02 19.28955 -4.76782 37800 ft 428 kts 327°
2026-04-25 07:02 19.34374 -4.79430 37803 ft 428 kts 327°
2026-04-25 07:03 19.39795 -4.82080 37802 ft 428 kts 327°
2026-04-25 07:03 19.45175 -4.84711 37809 ft 428 kts 327°
2026-04-25 07:04 19.50594 -4.87364 37814 ft 428 kts 327°
2026-04-25 07:04 19.56009 -4.90017 37817 ft 428 kts 327°
2026-04-25 07:05 19.61375 -4.92649 37816 ft 427 kts 327°
2026-04-25 07:05 19.66776 -4.95300 37822 ft 427 kts 327°
2026-04-25 07:06 19.72181 -4.97954 37824 ft 427 kts 327°
2026-04-25 07:06 19.77551 -5.00594 37825 ft 427 kts 327°
2026-04-25 07:07 19.82950 -5.03250 37824 ft 427 kts 327°
2026-04-25 07:07 19.88315 -5.05891 37827 ft 426 kts 327°
2026-04-25 07:08 19.93711 -5.08549 37826 ft 426 kts 327°
2026-04-25 07:08 19.99096 -5.11204 37822 ft 426 kts 327°
2026-04-25 07:09 20.04457 -5.13849 37824 ft 426 kts 327°
2026-04-25 07:09 20.09849 -5.16512 37831 ft 426 kts 327°
2026-04-25 07:10 20.15221 -5.19166 37826 ft 426 kts 327°
2026-04-25 07:10 20.20569 -5.21810 37822 ft 426 kts 327°
2026-04-25 07:11 20.25954 -5.24476 37822 ft 426 kts 327°
2026-04-25 07:11 20.31338 -5.27142 37823 ft 426 kts 327°
2026-04-25 07:12 20.36681 -5.29791 37814 ft 426 kts 327°
2026-04-25 07:12 20.44742 -5.33790 37820 ft 426 kts 327°
2026-04-25 07:13 20.50121 -5.36461 37820 ft 426 kts 327°
2026-04-25 07:13 20.55469 -5.39120 37822 ft 426 kts 327°
2026-04-25 07:14 20.60844 -5.41793 37829 ft 425 kts 327°
2026-04-25 07:14 20.66212 -5.44466 37831 ft 425 kts 327°
2026-04-25 07:15 20.71547 -5.47123 37834 ft 425 kts 327°
2026-04-25 07:15 20.76910 -5.49795 37830 ft 425 kts 327°
2026-04-25 07:16 20.82271 -5.52465 37838 ft 424 kts 327°
2026-04-25 07:16 20.87601 -5.55124 37839 ft 424 kts 327°
2026-04-25 07:17 20.92962 -5.57800 37844 ft 424 kts 327°
2026-04-25 07:17 20.98322 -5.60478 37849 ft 424 kts 327°
2026-04-25 07:18 21.03664 -5.63150 37852 ft 424 kts 327°
2026-04-25 07:18 21.08981 -5.65810 37854 ft 423 kts 327°
2026-04-25 07:19 21.14325 -5.68487 37853 ft 423 kts 327°
2026-04-25 07:19 21.19665 -5.71164 37847 ft 423 kts 326°
2026-04-25 07:20 21.24979 -5.73830 37862 ft 423 kts 326°
2026-04-25 07:20 21.30314 -5.76508 37856 ft 423 kts 326°
2026-04-25 07:21 21.35657 -5.79193 37865 ft 423 kts 326°
2026-04-25 07:21 21.40966 -5.81863 37859 ft 423 kts 326°
2026-04-25 07:22 21.46301 -5.84548 37858 ft 423 kts 326°
2026-04-25 07:22 21.51642 -5.87238 37866 ft 423 kts 326°
2026-04-25 07:23 21.56967 -5.89923 37864 ft 423 kts 326°
2026-04-25 07:23 21.62267 -5.92597 37866 ft 423 kts 326°
2026-04-25 07:24 21.67600 -5.95290 37863 ft 423 kts 326°
2026-04-25 07:24 21.72938 -5.97987 37871 ft 423 kts 326°
2026-04-25 07:25 21.78237 -6.00667 37869 ft 423 kts 326°
2026-04-25 07:25 21.83576 -6.03370 37872 ft 423 kts 326°
2026-04-25 07:26 21.88875 -6.06054 37869 ft 423 kts 326°
2026-04-25 07:26 21.94203 -6.08756 37876 ft 423 kts 326°
2026-04-25 07:27 21.99536 -6.11462 37871 ft 423 kts 326°
2026-04-25 07:27 22.04834 -6.14153 37873 ft 423 kts 326°
2026-04-25 07:28 22.10161 -6.16860 37870 ft 422 kts 326°
2026-04-25 07:28 22.15491 -6.19572 37880 ft 422 kts 326°
2026-04-25 07:29 22.20778 -6.22265 37878 ft 422 kts 326°
2026-04-25 07:29 22.26094 -6.24976 37872 ft 422 kts 326°
2026-04-25 07:30 22.31422 -6.27694 37874 ft 422 kts 326°
2026-04-25 07:30 22.36706 -6.30392 37877 ft 422 kts 326°
2026-04-25 07:31 22.42024 -6.33110 37873 ft 422 kts 326°
2026-04-25 07:31 22.47340 -6.35829 37877 ft 422 kts 326°
2026-04-25 07:32 22.52647 -6.38546 37872 ft 422 kts 326°
2026-04-25 07:32 22.57951 -6.41264 37877 ft 422 kts 326°
2026-04-25 07:33 22.63229 -6.43970 37879 ft 421 kts 326°
2026-04-25 07:33 22.68540 -6.46696 37877 ft 421 kts 326°
2026-04-25 07:34 22.73840 -6.49420 37881 ft 421 kts 326°
2026-04-25 07:34 22.79154 -6.52152 37877 ft 422 kts 326°
2026-04-25 07:35 22.84431 -6.54867 37879 ft 422 kts 326°
2026-04-25 07:35 22.89737 -6.57600 37880 ft 422 kts 326°
2026-04-25 07:36 22.95020 -6.60323 37877 ft 422 kts 326°
2026-04-25 07:36 23.00334 -6.63065 37882 ft 422 kts 326°
2026-04-25 07:37 23.05653 -6.65812 37884 ft 422 kts 326°
2026-04-25 07:37 23.10941 -6.68545 37887 ft 422 kts 326°
2026-04-25 07:38 23.16256 -6.71295 37888 ft 423 kts 326°
2026-04-25 07:38 23.21579 -6.74051 37889 ft 423 kts 326°
2026-04-25 07:39 23.26863 -6.76789 37889 ft 423 kts 326°
2026-04-25 07:39 23.32183 -6.79549 37887 ft 423 kts 326°
2026-04-25 07:40 23.37503 -6.82311 37894 ft 424 kts 326°
2026-04-25 07:40 23.42804 -6.85066 37892 ft 424 kts 326°
2026-04-25 07:41 23.48132 -6.87837 37895 ft 424 kts 326°
2026-04-25 07:41 23.53472 -6.90617 37891 ft 424 kts 326°
2026-04-25 07:42 23.58779 -6.93382 37892 ft 424 kts 326°
2026-04-25 07:42 23.64113 -6.96164 37896 ft 425 kts 326°
2026-04-25 07:43 23.69457 -6.98955 37891 ft 425 kts 326°
2026-04-25 07:43 23.74789 -7.01742 37899 ft 425 kts 326°
2026-04-25 07:44 23.80135 -7.04539 37899 ft 425 kts 326°
2026-04-25 07:44 23.85443 -7.07320 37901 ft 426 kts 326°
2026-04-25 07:45 23.90789 -7.10122 37898 ft 426 kts 326°
2026-04-25 07:45 23.96130 -7.12925 37907 ft 426 kts 326°
2026-04-25 07:46 24.00584 -7.15264 37908 ft 426 kts 326°
2026-04-25 07:46 24.06820 -7.18542 37904 ft 427 kts 326°
2026-04-25 07:47 24.11277 -7.20887 37902 ft 427 kts 326°
2026-04-25 07:47 24.16648 -7.23715 37911 ft 427 kts 326°
2026-04-25 07:48 24.22021 -7.26547 37910 ft 427 kts 326°
2026-04-25 07:48 24.27355 -7.29361 37906 ft 428 kts 326°
2026-04-25 07:49 24.32729 -7.32199 37913 ft 428 kts 326°
2026-04-25 07:49 24.38064 -7.35019 37918 ft 428 kts 326°
2026-04-25 07:50 24.43444 -7.37865 37909 ft 428 kts 326°
2026-04-25 07:50 24.48830 -7.40717 37914 ft 429 kts 326°
2026-04-25 07:51 24.54208 -7.43568 37916 ft 429 kts 326°
2026-04-25 07:51 24.59550 -7.46403 37913 ft 429 kts 327°
2026-04-25 07:52 24.64934 -7.49262 37917 ft 429 kts 327°
2026-04-25 07:52 24.70327 -7.52129 37918 ft 430 kts 327°
2026-04-25 07:53 24.75684 -7.54980 37910 ft 430 kts 327°
2026-04-25 07:53 24.81079 -7.57854 37920 ft 430 kts 327°
2026-04-25 07:54 24.86473 -7.60730 37919 ft 431 kts 327°
2026-04-25 07:54 24.91852 -7.63600 37920 ft 431 kts 327°
2026-04-25 07:55 24.97273 -7.66496 37920 ft 432 kts 327°
2026-04-25 07:55 25.02688 -7.69392 37921 ft 432 kts 327°
2026-04-25 07:56 25.08080 -7.72279 37922 ft 433 kts 327°
2026-04-25 07:56 25.13514 -7.75190 37920 ft 433 kts 327°
2026-04-25 07:57 25.18917 -7.78087 37920 ft 433 kts 327°
2026-04-25 07:57 25.24358 -7.81006 37921 ft 434 kts 327°
2026-04-25 07:58 25.29785 -7.83921 37924 ft 434 kts 327°
2026-04-25 07:58 25.35186 -7.86825 37923 ft 434 kts 327°
2026-04-25 07:59 25.40639 -7.89760 37928 ft 434 kts 327°
2026-04-25 07:59 25.46082 -7.92693 37921 ft 435 kts 327°
2026-04-25 08:00 25.51494 -7.95613 37927 ft 435 kts 327°
2026-04-25 08:00 25.56948 -7.98557 37928 ft 435 kts 327°
2026-04-25 08:01 25.62373 -8.01490 37928 ft 435 kts 327°
2026-04-25 08:01 25.67831 -8.04443 37931 ft 436 kts 327°
2026-04-25 08:02 25.73256 -8.07381 37928 ft 436 kts 327°
2026-04-25 08:02 25.78713 -8.10339 37927 ft 436 kts 327°
2026-04-25 08:03 25.84184 -8.13309 37927 ft 437 kts 327°
2026-04-25 08:03 25.89615 -8.16259 37926 ft 437 kts 327°
2026-04-25 08:04 25.95097 -8.19241 37923 ft 437 kts 327°
2026-04-25 08:04 26.00573 -8.22221 37919 ft 437 kts 327°
2026-04-25 08:05 26.06011 -8.25185 37932 ft 437 kts 327°
2026-04-25 08:05 26.11487 -8.28172 37922 ft 438 kts 327°
2026-04-25 08:06 26.16968 -8.31166 37930 ft 438 kts 327°
2026-04-25 08:06 26.22416 -8.34144 37926 ft 438 kts 327°
2026-04-25 08:07 26.27906 -8.37148 37927 ft 438 kts 327°
2026-04-25 08:07 26.33383 -8.40149 37926 ft 438 kts 327°
2026-04-25 08:08 26.38844 -8.43144 37924 ft 439 kts 327°
2026-04-25 08:08 26.44302 -8.46140 37928 ft 439 kts 327°
2026-04-25 08:09 26.49815 -8.49170 37927 ft 439 kts 327°
2026-04-25 08:09 26.55274 -8.52174 37930 ft 439 kts 327°
2026-04-25 08:10 26.60759 -8.55195 37924 ft 439 kts 327°
2026-04-25 08:10 26.66254 -8.58224 37927 ft 440 kts 327°
2026-04-25 08:11 26.71709 -8.61235 37928 ft 440 kts 327°
2026-04-25 08:11 26.77216 -8.64278 37927 ft 440 kts 327°
2026-04-25 08:12 26.82702 -8.67313 37928 ft 440 kts 327°
2026-04-25 08:12 26.88162 -8.70337 37924 ft 440 kts 328°
2026-04-25 08:13 26.93667 -8.73388 37934 ft 440 kts 327°
2026-04-25 08:14 27.01925 -8.77973 37930 ft 441 kts 328°
2026-04-25 08:14 27.07412 -8.81023 37931 ft 441 kts 328°
2026-04-25 08:15 27.12892 -8.84072 37916 ft 441 kts 328°
2026-04-25 08:15 27.18401 -8.87142 37928 ft 442 kts 328°
2026-04-25 08:16 27.23905 -8.90211 37936 ft 442 kts 328°
2026-04-25 08:16 27.29415 -8.93288 37923 ft 442 kts 328°
2026-04-25 08:17 27.34937 -8.96375 37922 ft 442 kts 328°
2026-04-25 08:17 27.40419 -8.99443 37921 ft 442 kts 328°
2026-04-25 08:18 27.45933 -9.02532 37917 ft 442 kts 328°
2026-04-25 08:18 27.51447 -9.05625 37916 ft 442 kts 328°
2026-04-25 08:19 27.56937 -9.08708 37918 ft 442 kts 328°
2026-04-25 08:19 27.62459 -9.11804 37916 ft 443 kts 330°
2026-04-25 08:19 27.65400 -9.12938 37909 ft 453 kts 343°
2026-04-25 08:20 27.68561 -9.13376 37915 ft 461 kts 353°
2026-04-25 08:20 27.71792 -9.13094 37910 ft 471 kts
2026-04-25 08:20 27.74965 -9.12335 37921 ft 472 kts
2026-04-25 08:21 27.81386 -9.10599 37914 ft 474 kts
2026-04-25 08:21 27.87817 -9.08868 37908 ft 474 kts
2026-04-25 08:22 27.94211 -9.07211 37903 ft 474 kts
2026-04-25 08:22 28.00652 -9.05570 37899 ft 474 kts
2026-04-25 08:23 28.07093 -9.03932 37899 ft 474 kts
2026-04-25 08:23 28.13540 -9.02287 37895 ft 474 kts
2026-04-25 08:24 28.19983 -9.00639 37896 ft 474 kts
2026-04-25 08:24 28.26372 -8.99003 37890 ft 473 kts
2026-04-25 08:25 28.32796 -8.97355 37892 ft 473 kts
2026-04-25 08:25 28.39222 -8.95706 37885 ft 472 kts
2026-04-25 08:26 28.45637 -8.94057 37880 ft 471 kts
2026-04-25 08:26 28.52001 -8.92420 37882 ft 470 kts
2026-04-25 08:27 28.58387 -8.90774 37885 ft 469 kts
2026-04-25 08:27 28.64771 -8.89127 37879 ft 468 kts
2026-04-25 08:28 28.71094 -8.87494 37873 ft 468 kts
2026-04-25 08:28 28.77443 -8.85852 37877 ft 467 kts
2026-04-25 08:29 28.83778 -8.84211 37879 ft 466 kts
2026-04-25 08:29 28.90073 -8.82579 37886 ft 465 kts
2026-04-25 08:30 28.96398 -8.80937 37876 ft 465 kts
2026-04-25 08:30 29.02672 -8.79306 37880 ft 464 kts
2026-04-25 08:31 29.08981 -8.77664 37885 ft 464 kts
2026-04-25 08:31 29.15285 -8.76020 37880 ft 464 kts
2026-04-25 08:32 29.21554 -8.74383 37877 ft 464 kts
2026-04-25 08:32 29.27859 -8.72735 37893 ft 464 kts
2026-04-25 08:33 29.33111 -8.71361 37889 ft 465 kts
2026-04-25 08:33 29.40458 -8.69435 37897 ft 465 kts
2026-04-25 08:34 29.45718 -8.68055 37900 ft 466 kts
2026-04-25 08:34 29.52054 -8.66390 37895 ft 466 kts
2026-04-25 08:35 29.58397 -8.64721 37901 ft 467 kts
2026-04-25 08:35 29.64698 -8.63061 37909 ft 467 kts
2026-04-25 08:36 29.71044 -8.61387 37909 ft 467 kts
2026-04-25 08:36 29.77338 -8.59725 37916 ft 466 kts
2026-04-25 08:37 29.83660 -8.58053 37914 ft 464 kts
2026-04-25 08:37 29.89955 -8.56385 37926 ft 463 kts
2026-04-25 08:38 29.96227 -8.54723 37921 ft 461 kts
2026-04-25 08:38 30.02454 -8.53070 37930 ft 461 kts
2026-04-25 08:39 30.08705 -8.51409 37937 ft 461 kts
2026-04-25 08:39 30.14963 -8.49744 37930 ft 461 kts
2026-04-25 08:40 30.21199 -8.48082 37927 ft 461 kts
2026-04-25 08:40 30.27471 -8.46408 37938 ft 462 kts
2026-04-25 08:41 30.33705 -8.44742 37934 ft 462 kts
2026-04-25 08:41 30.39989 -8.43061 37944 ft 463 kts
2026-04-25 08:42 30.46259 -8.41380 37940 ft 464 kts
2026-04-25 08:42 30.52551 -8.39692 37929 ft 464 kts
2026-04-25 08:43 30.58847 -8.38001 37935 ft 464 kts
2026-04-25 08:43 30.65153 -8.36313 37944 ft 464 kts
2026-04-25 08:44 30.71418 -8.34636 37943 ft 464 kts
2026-04-25 08:44 30.77707 -8.32950 37950 ft 463 kts
2026-04-25 08:45 30.83956 -8.31271 37948 ft 462 kts
2026-04-25 08:45 30.90219 -8.29586 37954 ft 461 kts
2026-04-25 08:46 30.96467 -8.27903 37959 ft 460 kts
2026-04-25 08:46 31.02700 -8.26221 37960 ft 459 kts
2026-04-25 08:47 31.08934 -8.24538 37977 ft 459 kts
2026-04-25 08:47 31.15136 -8.22860 37984 ft 459 kts
2026-04-25 08:48 31.21368 -8.21173 37974 ft 459 kts
2026-04-25 08:48 31.27600 -8.19482 37983 ft 459 kts
2026-04-25 08:49 31.33784 -8.17802 37920 ft 460 kts
2026-04-25 08:49 31.36933 -8.16948 37386 ft 465 kts
2026-04-25 08:49 31.40088 -8.16090 36831 ft 462 kts
2026-04-25 08:49 31.43219 -8.15236 36259 ft 461 kts
2026-04-25 08:50 31.46338 -8.14385 35647 ft 461 kts
2026-04-25 08:50 31.49427 -8.13543 35015 ft 461 kts 10°
2026-04-25 08:50 31.52560 -8.12689 34371 ft 462 kts 10°
2026-04-25 08:50 31.55703 -8.11831 33661 ft 463 kts 10°
2026-04-25 08:51 31.58856 -8.11016 32936 ft 462 kts
2026-04-25 08:51 31.62031 -8.10667 32488 ft 453 kts 358°
2026-04-25 08:51 31.65095 -8.10857 32195 ft 440 kts 349°
2026-04-25 08:51 31.68109 -8.11396 31742 ft 435 kts 348°
2026-04-25 08:52 31.71075 -8.11980 31282 ft 431 kts 347°
2026-04-25 08:52 31.74029 -8.12567 30824 ft 428 kts 347°
2026-04-25 08:52 31.76957 -8.13138 30370 ft 425 kts 348°
2026-04-25 08:52 31.79868 -8.13692 29895 ft 422 kts 348°
2026-04-25 08:53 31.82767 -8.14234 29366 ft 419 kts 348°
2026-04-25 08:53 31.85646 -8.14765 28889 ft 416 kts 348°
2026-04-25 08:53 31.88488 -8.15288 28411 ft 412 kts 348°
2026-04-25 08:53 31.91314 -8.15807 27953 ft 409 kts 348°
2026-04-25 08:54 31.94083 -8.16317 27484 ft 406 kts 348°
2026-04-25 08:54 31.96870 -8.16830 27016 ft 404 kts 348°
2026-04-25 08:54 31.99638 -8.17341 26571 ft 401 kts 349°
2026-04-25 08:54 32.02387 -8.17848 26125 ft 398 kts 349°
2026-04-25 08:55 32.05132 -8.18355 25672 ft 396 kts 349°
2026-04-25 08:55 32.07850 -8.18858 25224 ft 394 kts 349°
2026-04-25 08:55 32.10558 -8.19353 24790 ft 393 kts 350°
2026-04-25 08:55 32.13293 -8.19547 24370 ft 393 kts 359°
2026-04-25 08:56 32.15996 -8.19230 24056 ft 389 kts
2026-04-25 08:56 32.18642 -8.18792 23646 ft 388 kts
2026-04-25 08:56 32.21313 -8.18328 23159 ft 387 kts
2026-04-25 08:56 32.23971 -8.17867 22678 ft 385 kts
2026-04-25 08:57 32.26618 -8.17416 22216 ft 383 kts
2026-04-25 08:57 32.29253 -8.16976 21775 ft 380 kts
2026-04-25 08:57 32.31871 -8.16543 21334 ft 378 kts
2026-04-25 08:57 32.34477 -8.16116 20901 ft 376 kts
2026-04-25 08:58 32.37062 -8.15695 20470 ft 374 kts
2026-04-25 08:58 32.39643 -8.15275 20039 ft 373 kts
2026-04-25 08:58 32.42183 -8.14861 19611 ft 371 kts
2026-04-25 08:58 32.44735 -8.14445 19193 ft 369 kts
2026-04-25 08:59 32.47289 -8.14028 18764 ft 368 kts
2026-04-25 08:59 32.49788 -8.13620 18336 ft 365 kts
2026-04-25 08:59 32.52311 -8.13208 17868 ft 363 kts
2026-04-25 08:59 32.54808 -8.12801 17411 ft 361 kts
2026-04-25 09:00 32.57292 -8.12395 16971 ft 358 kts
2026-04-25 09:00 32.59723 -8.11997 16557 ft 356 kts
2026-04-25 09:00 32.62176 -8.11595 16132 ft 353 kts
2026-04-25 09:00 32.64603 -8.11198 15718 ft 351 kts
2026-04-25 09:01 32.67027 -8.10801 15284 ft 349 kts
2026-04-25 09:01 32.69435 -8.10406 14901 ft 348 kts
2026-04-25 09:01 32.71833 -8.10013 14488 ft 347 kts
2026-04-25 09:01 32.74177 -8.09630 14235 ft 342 kts
2026-04-25 09:02 32.76531 -8.09247 13856 ft 340 kts
2026-04-25 09:02 32.78880 -8.08865 13433 ft 339 kts
2026-04-25 09:02 32.81215 -8.08484 13007 ft 339 kts
2026-04-25 09:02 32.83553 -8.08103 12587 ft 337 kts
2026-04-25 09:03 32.85868 -8.07725 12175 ft 332 kts
2026-04-25 09:03 32.88102 -8.07360 11776 ft 323 kts
2026-04-25 09:03 32.90303 -8.06993 11395 ft 314 kts 11°
2026-04-25 09:03 32.92302 -8.06074 11008 ft 306 kts 34°
2026-04-25 09:04 32.93838 -8.04375 10668 ft 300 kts 52°
2026-04-25 09:04 32.94821 -8.02262 10550 ft 290 kts 65°
2026-04-25 09:04 32.95568 -8.00048 10419 ft 289 kts 68°
2026-04-25 09:04 32.96291 -7.97783 10293 ft 291 kts 68°
2026-04-25 09:05 32.96991 -7.95573 10146 ft 279 kts 68°
2026-04-25 09:05 32.97663 -7.93467 10029 ft 264 kts 68°
2026-04-25 09:05 32.98313 -7.91448 9748 ft 257 kts 68°
2026-04-25 09:05 32.98948 -7.89486 9476 ft 251 kts 68°
2026-04-25 09:06 32.99544 -7.87653 9251 ft 251 kts 68°
2026-04-25 09:06 33.00176 -7.85709 8991 ft 253 kts 68°
2026-04-25 09:06 33.00823 -7.83725 8738 ft 260 kts 68°
2026-04-25 09:06 33.01485 -7.81694 8472 ft 264 kts 68°
2026-04-25 09:07 33.02144 -7.79674 8174 ft 259 kts 68°
2026-04-25 09:07 33.02786 -7.77699 7894 ft 252 kts 68°
2026-04-25 09:07 33.03411 -7.75779 7642 ft 245 kts 69°
2026-04-25 09:07 33.04021 -7.73905 7400 ft 242 kts 69°
2026-04-25 09:08 33.04636 -7.72013 7154 ft 248 kts 69°
2026-04-25 09:08 33.05262 -7.70086 6913 ft 256 kts 69°
2026-04-25 09:08 33.05913 -7.68089 6618 ft 258 kts 69°
2026-04-25 09:08 33.06562 -7.66086 6325 ft 259 kts 69°
2026-04-25 09:09 33.07212 -7.64081 6036 ft 259 kts 69°
2026-04-25 09:09 33.07857 -7.62080 5883 ft 254 kts 69°
2026-04-25 09:09 33.08481 -7.60160 5747 ft 249 kts 68°
2026-04-25 09:09 33.09100 -7.58261 5634 ft 242 kts 69°
2026-04-25 09:10 33.09697 -7.56409 5546 ft 237 kts 69°
2026-04-25 09:10 33.10278 -7.54598 5434 ft 229 kts 69°
2026-04-25 09:10 33.10854 -7.52860 5247 ft 223 kts 63°
2026-04-25 09:10 33.11870 -7.51537 5008 ft 216 kts 28°
2026-04-25 09:11 33.14637 -7.51566 4737 ft 195 kts 355°
2026-04-25 09:11 33.15945 -7.51795 4506 ft 188 kts 353°
2026-04-25 09:11 33.17187 -7.52104 4278 ft 183 kts 349°
2026-04-25 09:12 33.18413 -7.52491 4031 ft 181 kts 348°
2026-04-25 09:12 33.19609 -7.52891 3796 ft 175 kts 348°
2026-04-25 09:12 33.20729 -7.53276 3578 ft 162 kts 348°
2026-04-25 09:12 33.21773 -7.53635 3376 ft 154 kts 349°
2026-04-25 09:13 33.22792 -7.53984 3183 ft 150 kts 349°
2026-04-25 09:13 33.23805 -7.54331 2979 ft 152 kts 349°
2026-04-25 09:13 33.24816 -7.54679 2781 ft 152 kts 349°
2026-04-25 09:13 33.25814 -7.55023 2580 ft 151 kts 349°
2026-04-25 09:14 33.26821 -7.55370 2380 ft 150 kts 349°
2026-04-25 09:14 33.27831 -7.55718 2174 ft 149 kts 348°
2026-04-25 09:14 33.28814 -7.56057 1977 ft 148 kts 347°
2026-04-25 09:14 33.29800 -7.56396 1784 ft 149 kts 347°
2026-04-25 09:15 33.30799 -7.56741 1593 ft 149 kts 348°
2026-04-25 09:15 33.31788 -7.57079 1373 ft 147 kts 347°
2026-04-25 09:15 33.32774 -7.57381 1138 ft 148 kts 346°
2026-04-25 09:15 33.33754 -7.57761 965 ft 147 kts 344°
2026-04-25 09:16 33.34739 -7.58115 810 ft 148 kts 348°
2026-04-25 09:16 33.35732 -7.58435 652 ft 143 kts 351°
2026-04-25 09:16 33.36568 -7.58725 651 ft 104 kts 344°
2026-04-25 09:16 33.37113 -7.58900 651 ft 60 kts 343°
2026-04-25 09:17 33.37694 -7.59108 646 ft 16 kts 343°
2026-04-25 09:17 33.37809 -7.59092 644 ft 18 kts 46°
2026-04-25 09:17 33.37848 -7.58957 653 ft 15 kts 74°
2026-04-25 09:18 33.37877 -7.58839 654 ft 14 kts 74°
2026-04-25 09:18 33.37901 -7.58739 652 ft 12 kts 74°
2026-04-25 09:18 33.37899 -7.58645 653 ft 12 kts 116°
2026-04-25 09:18 33.37853 -7.58568 652 ft 11 kts 121°
2026-04-25 09:19 33.37802 -7.58498 652 ft 11 kts 142°
2026-04-25 09:19 33.37733 -7.58464 653 ft 11 kts 162°
2026-04-25 09:19 33.37662 -7.58441 652 ft 10 kts 170°
2026-04-25 09:19 33.37591 -7.58433 652 ft 10 kts 166°
2026-04-25 09:20 33.37526 -7.58411 652 ft 10 kts 163°
2026-04-25 09:20 33.37461 -7.58389 653 ft 10 kts 164°
2026-04-25 09:20 33.37398 -7.58368 654 ft 9 kts 164°
2026-04-25 09:20 33.37336 -7.58348 652 ft 9 kts 166°
2026-04-25 09:21 33.37296 -7.58336 652 ft 9 kts 165°
2026-04-25 09:21 33.37218 -7.58310 652 ft 8 kts 165°
2026-04-25 09:21 33.37190 -7.58283 653 ft 8 kts 109°
2026-04-25 09:21 33.37193 -7.58221 652 ft 5 kts 79°
2026-04-25 09:22 33.37194 -7.58219 652 ft 0 kts 79°
2026-04-25 09:22 33.37194 -7.58215 652 ft 0 kts 79°